Regional Weather Roundup
Issued by NWS

Home | Current Version | Previous Version | Graphics & Text | Print | Product List | Glossary On
Versions: 1 2 3 4 5 6 7 8 9 10 11 12 13 14 15 16 17 18 19 20 21 22 23 24 25 26 27 28 29 30 31 32 33 34 35 36 37 38 39 40 41 42 43 44 45 46 47 48 49 50
000
ASUS43 KOAX 231002
RWRNE

WEATHER ROUNDUP FOR NEBRASKA
NATIONAL WEATHER SERVICE OMAHA NE
400 AM CST TUE JAN 23 2018

NOTES: SATELLITE DATA IS BEING USED TO AUGMENT CLOUD COVER ABOVE
       12000 FEET.
       "FAIR" INDICATES FEW OR NO CLOUDS BELOW 12,000 FEET WITH NO
       SIGNIFICANT WEATHER AND/OR OBSTRUCTIONS TO VISIBILITY.


NEZ001>004-019>022-054>056-231100-
NEBRASKA PANHANDLE

CITY           SKY/WX    TMP DP  RH WIND       PRES   REMARKS
SCOTTSBLUFF    CLOUDY    24  17  74 W8        30.13S WCI  15
ALLIANCE       CLOUDY    21  17  84 W6        30.09R WCI  13
CHADRON        CLOUDY    24  17  74 VRB3      30.12R
GORDON         CLOUDY    26  18  71 W10       30.08R WCI  16
KIMBALL        CLOUDY    29  22  73 NW14      30.12R WCI  19
SIDNEY         CLOUDY    30  21  69 NW17      30.11R WCI  18
$$

NEZ057>060-069>072-079>082-231100-
SOUTHWEST NEBRASKA

CITY           SKY/WX    TMP DP  RH WIND       PRES   REMARKS
NORTH PLATTE   PTCLDY     6   2  83 NW7       30.11R WCI  -6
IMPERIAL       PTCLDY    17  11  77 NW7       30.11F WCI   8
LEXINGTON      CLEAR     17  11  76 NW13      30.10S WCI   4
MCCOOK         CLEAR     18  11  74 W13       30.12S WCI   5
OGALLALA       MOCLDY    21  16  79 NW12      30.11F WCI   9
$$

NEZ005>010-023>029-035>040-094-231100-
NORTH CENTRAL NEBRASKA

CITY           SKY/WX    TMP DP  RH WIND       PRES   REMARKS
VALENTINE      MOCLDY    13   8  81 W6        30.07S WCI   4
AINSWORTH      CLEAR     18  14  84 NW10      30.05S WCI   6
BROKEN BOW     CLEAR     22  13  68 NW17      30.06S WCI   8
O`NEILL        CLOUDY    21  21 100 NW10      30.05S FOG     WCI   9
ORD            CLEAR     12   9  87 N6        30.07R WCI   3
THEDFORD       PTCLDY    17  12  80 W8        30.08R WCI   7
$$

NEZ041-046>049-061>064-073>077-083>087-231100-
SOUTH CENTRAL NEBRASKA

CITY           SKY/WX    TMP DP  RH WIND       PRES   REMARKS
GRAND ISLAND   CLEAR     17  15  92 NW16      30.06R WCI   2
AURORA           N/A     17  16  93 NW12      30.06R WCI   4
HASTINGS       CLEAR     21  16  81 NW15      30.07R WCI   8
HEBRON         CLOUDY    23  20  88 NW7       30.09R WCI  15
HOLDREGE       CLEAR     21  16  81 NW8       30.08S WCI  12
KEARNEY        CLEAR     18  14  84 NW13      30.08R WCI   5
YORK           CLEAR     23  23 100 NW16      30.05R WCI  10
$$

NEZ011>018-030>034-042>045-231100-
NORTHEAST NEBRASKA

CITY           SKY/WX    TMP DP  RH WIND       PRES   REMARKS
NORFOLK        CLOUDY    26  19  74 NW17      30.04R WCI  13
ALBION         CLOUDY    21  19  91 NW17      30.05R WCI   7
BLAIR          CLOUDY    26  23  89 NW17G28   30.01R WCI  12
COLUMBUS       CLOUDY    23  21  92 NW22      30.05R WCI   8
FREMONT          N/A    N/A N/A N/A MISG        N/A
TEKAMAH        CLOUDY    26  24  92 N18       30.04R WCI  13
WAYNE            N/A     21  20  96 NW17G24   30.04R WCI   7
$$

NEZ050>053-065>068-078-088>093-231100-
SOUTHEAST NEBRASKA

CITY           SKY/WX    TMP DP  RH WIND       PRES   REMARKS
LINCOLN        CLOUDY    24  19  81 N15G25    30.07R WCI  11
OMAHA EPPLEY   CLOUDY    27  23  85 NW22G31   30.01R WCI  13
BEATRICE       CLOUDY    26  22  85 N16       30.06R WCI  13
FALLS CITY     CLOUDY    27  23  85 NW21      30.01R WCI  13
NEBRASKA CITY  CLOUDY    27  27 100 NW18G24   30.01R WCI  13
PLATTSMOUTH    CLOUDY    26  24  91 NW21      30.00R WCI  12
$$

NEZ044-045-051>053-067-231100-
OMAHA AREA

CITY           SKY/WX    TMP DP  RH WIND       PRES   REMARKS
OMAHA EPPLEY   CLOUDY    27  23  85 NW22G31   30.01R WCI  13
BLAIR          CLOUDY    26  23  89 NW17G28   30.01R WCI  12
FREMONT          N/A    N/A N/A N/A MISG        N/A
MILLARD        CLOUDY    27  23  84 NW22G29   30.03R WCI  13
OFFUTT AFB     CLOUDY    27  23  85 NW12G24   30.01R WCI  17
PLATTSMOUTH    CLOUDY    26  24  91 NW21      30.00R WCI  12
WAHOO          CLOUDY    25  21  85 NW21      30.05R WCI  10
$$




USA.gov is the U.S. government's official web portal to all federal, state and local government web resources and services.